Regional Weather Roundup
Issued by NWS

Home | Current Version | Previous Version | Graphics & Text | Print | Product List | Glossary On
Versions: 1 2 3 4 5 6 7 8 9 10 11 12 13 14 15 16 17 18 19 20 21 22 23 24 25 26 27 28 29 30 31 32 33 34 35 36 37 38 39 40 41 42 43 44 45 46 47 48 49 50
000
ASUS45 KBOU 281207
RWRCO

WEATHER ROUNDUP FOR COLORADO
NATIONAL WEATHER SERVICE DENVER/BOULDER CO
500 AM MST SAT FEB 28 2015

NOTE: "FAIR" INDICATES FEW OR NO CLOUDS BELOW 12000 FEET WITH NO
SIGNIFICANT WEATHER AND/OR OBSTRUCTIONS TO VISIBILITY.

COZ001>005-013-030-031-281300-
...NORTHWEST COLORADO...

CITY           SKY/WX    TMP DP  RH WIND       PRES   REMARKS
CRAIG            N/A     18   9  68 E8        29.79R WCI   8
HAYDEN         CLOUDY    12   3  67 E14       29.78S WCI  -3
MEEKER         PTCLDY    10   5  80 NE5       29.77F WCI   2
MOUNT WERNER   NOT AVBL
STEAMBOAT SPGS MOCLDY     3  -1  85 CALM      29.80R
WALDEN         CLOUDY    -6 -11  77 SE5       29.77S WCI -17
$$

COZ006>008-011-281300-
...WEST CENTRAL VALLEYS...

CITY           SKY/WX    TMP DP  RH WIND       PRES   REMARKS
GRAND JUNCTION PTCLDY    23  18  81 E12       29.77R WCI  12
MONTROSE       MOCLDY    16  11  80 S8        29.80S WCI   5
EAGLE          CLOUDY    19  16  86 E8        29.83S WCI   9
RIFLE          CLEAR     19  14  81 VRB3      29.80S
DELTA          MOCLDY    24  21  89 N7        29.79F WCI  15
NUCLA          MOCLDY    23  18  80 E9        29.80R WCI  13
$$

COZ017>023-064>068-281300-
...SOUTHWEST COLORADO...

CITY           SKY/WX    TMP DP  RH WIND       PRES   REMARKS
DURANGO        CLOUDY    25  23  92 E5        29.76F WCI  19
CORTEZ         CLOUDY    29  27  92 NE3       29.74F
PAGOSA SPRINGS CLOUDY    24  23  98 CALM      29.78S
TELLURIDE      MOCLDY    19  11  72 NE3       29.73R
WOLF CREEK PAS SNOW       9   9 100 SW13      29.75R VSB 1/2 WCI  -7
$$

COZ009-010-012-014-032>034-037-058>063-281300-
...CENTRAL COLORADO...

CITY           SKY/WX    TMP DP  RH WIND       PRES   REMARKS
ASPEN          CLEAR      4  -1  80 S5        29.76S WCI  -5
BUENA VISTA    MOCLDY     8   2  77 W9        29.79S WCI  -6
COPPER MTN     PTCLDY     9  -2  61 S7        29.69R WCI  -3
BERTHOUD PASS  FAIR       1  -6  71 W10       29.68R WCI -14
COTTONWOOD PAS MOCLDY    14  10  85 E3        29.73S
GUNNISON       CLOUDY     9   7  92 CALM      29.79F
KREMMLING      PTCLDY    10   5  79 SE3       29.83R
LEADVILLE      CLOUDY     2   0  91 N5        29.73S WCI  -8
SALIDA         MOCLDY    10   6  82 W6        29.88S WCI   1
SUNLIGHT       PTCLDY   N/A N/A N/A CALM        N/A
WILKERSON PASS PTCLDY     9   5  85 W8        29.71S WCI  -4
$$

COZ069>075-281300-
...SAN LUIS VALLEY/SANGRE DE CRISTO MOUNTAINS...

CITY           SKY/WX    TMP DP  RH WIND       PRES   REMARKS
ALAMOSA        CLOUDY    17  14  88 CALM      29.80R
LA VETA PASS   LGT SNOW  14  10  85 MISG      29.72S
SAGUACHE       CLOUDY    21  18  86 CALM      29.79S
$$

COZ035-036-038>040-281300-
...NORTHERN COLORADO FRONT RANGE...

CITY           SKY/WX    TMP DP  RH WIND       PRES   REMARKS
DENVER INTL AP PTCLDY     4   0  83 W5        29.88R WCI  -5
DMNS CITY PARK   N/A      6   3  89 SE2       29.90R
AURORA         PTCLDY     2  -2  83 S6        29.88R WCI  -9
FRONT RANGE AP NOT AVBL
ERIE MUNI ARPT FLURRIES   0  -3  87 CALM      29.92R
BOULDER MUN AP MOCLDY     5   3  92 SE3       29.89R
CENTENNIAL     MOCLDY     2   0  91 CALM      29.85R
BROOMFIELD     PTCLDY     9   5  85 CALM      29.87R
FORT COLLINS   PTCLDY     5   3  92 N7        29.93R WCI  -7
LONGMONT       MOCLDY     4  -1  79 CALM      29.93R
$$

COZ041-046-047-076>085-087-088-281300-
...PIKES PEAK/PALMER DIVIDE AND SOUTHERN FOOTHILLS...

CITY           SKY/WX    TMP DP  RH WIND       PRES   REMARKS
COLO. SPRINGS  MOCLDY     0  -4  83 N5        29.85F FOG     WCI -10
A. F. ACADEMY  CLOUDY     0  -4  81 NE3       29.81F
ELLICOTT       NOT AVBL
FALCON         PTCLDY     2  -2  83 NW5       29.80F WCI  -7
FORT CARSON    CLOUDY     2  -2  85 CALM      29.86S
LIMON          CLOUDY     5   4  95 S13       29.91R WCI -12
MONUMENT HILL  MOCLDY     3   1  92 CALM      29.78R
TRINIDAD       MOCLDY     7   3  84 W3        29.87S
$$

COZ042>045-048>051-090-091-281300-
...NORTHEAST COLORADO...

CITY           SKY/WX    TMP DP  RH WIND       PRES   REMARKS
GREELEY ARPT   PTCLDY     5  -4  66 N6        29.94R WCI  -6
AKRON          PTCLDY     8   4  83 S13       29.95R WCI  -8
BURLINGTON     CLOUDY     9   4  80 S15       30.02F WCI  -8
WRAY           FLURRIES  14  10  83 SE9       30.07R WCI   2
STERLING       CLEAR      7   3  85 CALM      30.00R
HOLYOKE        NOT AVBL
FORT MORGAN    CLEAR      6   1  80 S3        29.97R
$$

COZ086-089-092>099-281300-
...SOUTHEAST COLORADO...

CITY           SKY/WX    TMP DP  RH WIND       PRES   REMARKS
PUEBLO         CLOUDY     7   3  84 N5        29.94S WCI  -2
LA JUNTA       PTCLDY     8   4  83 W9        29.97R WCI  -5
LAMAR          MOCLDY    13   8  81 S10       30.01S WCI   0
SPRINGFIELD      N/A     11   8  88 S14       29.98F WCI  -5
$$


USA.gov is the U.S. government's official web portal to all federal, state and local government web resources and services.